Regional Weather Roundup
Issued by NWS

Home | Current Version | Previous Version | Text Only | Print | Product List | Glossary Off
Versions: 1 2 3 4 5 6 7 8 9 10 11 12 13 14 15 16 17 18 19 20 21 22 23 24 25 26 27

000
ASUS45 KSLC 241010
RWRUT

UTAH REGIONAL WEATHER ROUNDUP
NATIONAL WEATHER SERVICE SALT LAKE CITY UT
400 AM MDT SAT JUN 24 2017

UTZ001>011-023>025-241100-

NORTHERN UTAH

CITY           SKY/WX    TMP DP  RH WIND       PRES   REMARKS
BRIGHAM CITY   CLEAR     57  37  47 NW5       30.17S
HILL AFB       CLEAR     60  35  39 E17G24    30.18S
LOGAN          CLEAR     56  44  64 CALM      30.20S
OGDEN          CLEAR     57  38  48 S6        30.16S
SALT LAKE CITY CLEAR     64  40  41 S5        30.14S
TOOELE VALLEY  CLEAR     57  30  35 S6        30.17S
WENDOVER         N/A     71  28  20 CALM      30.17F
HEBER CITY     CLEAR     41  34  75 CALM      30.25S
WEST JORDAN    CLEAR     60  44  55 CALM      30.18S

$$

UTZ011>015-024>027-241100-

CENTRAL/NORTHEAST UTAH

CITY           SKY/WX    TMP DP  RH WIND       PRES   REMARKS
PROVO AIRPORT  CLEAR     56  38  50 CALM      30.19R
MOAB/CANYONLAN CLEAR     68  23  18 W9        30.07S
DELTA          CLEAR     55  21  26 N9        30.17S
PRICE          CLEAR     54  19  25 N7        30.19S
RICHFIELD      CLEAR     50  39  66 CALM      30.24S
ROOSEVELT      CLEAR     48  34  57 SW5       30.19R
VERNAL         CLEAR     52  35  52 SW3       30.18R

$$

UTZ013>016-019>022-027-241100-

SOUTHERN UTAH

CITY           SKY/WX    TMP DP  RH WIND       PRES   REMARKS
BRYCE CANYON   PTCLDY    42  24  49 W7        30.35F
CEDAR CITY     CLEAR     56  26  31 NE3       30.21S
MILFORD        CLEAR     58  18  21 NW6       30.18S
ST GEORGE      SUNNY     88  25  10 NE20G29   29.94R
HANKSVILLE     CLEAR     68  21  17 NW3       30.11S
KANAB          CLEAR     59  34  38 NE7       30.15S
BLANDING       CLEAR     58  27  30 NW5       30.23S

$$

REGIONAL REPORTS     COLORADO/ARIZONA

CITY           SKY/WX    TMP DP  RH WIND       PRES   REMARKS
CRAIG, CO      CLOUDY    40  34  79 SW3       30.27R
GRAND JUNCTION CLEAR     67  25  20 CALM      30.10S
RIFLE, CO      CLEAR     53  30  41 NE7       30.20R
MONTROSE, CO   CLOUDY    56  31  38 SE8       30.19R
CORTEZ, CO     CLOUDY    50  27  40 E6        30.19R
COLORADO CITY    N/A     61  30  31 CALM      30.12S
PAGE, AZ       CLEAR     78  20  11 SE3       30.04S
GRAND CANYON   CLEAR     50  29  44 NE3       30.25S
KINGMAN, AZ    CLEAR     84  39  20 SE16      29.93S
FLAGSTAFF, AZ  CLEAR     54  29  38 CALM      30.25F

$$

REGIONAL REPORTS    NEVADA/IDAHO/WYOMING

CITY           SKY/WX    TMP DP  RH WIND       PRES   REMARKS
LAS VEGAS, NV  PTCLDY    93  23   8 NE9       29.82R
ELY, NY        CLEAR     45  22  40 S12       30.29R
ELKO, NV       CLEAR     52  33  48 CALM      30.24S
POCATELLO, ID  CLEAR     49  40  71 E5        30.21S
BURLEY, ID     CLEAR     51  38  60 CALM      30.18S
FORT BRIDGER,    N/A     44  28  53 NW3       30.37S
EVANSTON, WY   CLOUDY    44  33  65 E5        30.33F
ROCK SPRINGS,  CLEAR     45  29  53 E7        30.33F
KEMMERER, WY     N/A     45  30  57 N12       30.36F

$$




USA.gov is the U.S. government's official web portal to all federal, state and local government web resources and services.